Красный Октябрь

Россия / Курганская область     55°39′33″N   64°48′42″E
темп.,
°C
ветер,
м/с
пор.,
м/с
влажн.,
%
обл.,
%
осадки,
мм/ч
давл.,
гПа
погр.,
м
4 марта, чт
чт423:00−6ююз3896100 0.0 1001257
02:00−6ююз379699 0.0 1000243
05:00−7ююз269798 0.1 999173
08:00−8ююз259785 0.1 998119
11:00−5зюз359390 0.1 998325
14:00−2зюз47887 0.0 997677
17:00−4з588852 0.2 998975
20:00−7зюз4128699 0.1 1000427
5 марта, пт
пт523:00−10зюз3108966 0.1 1001208
02:00−10ююз4119033 0.0 1000291
05:00−8ююз6158867 0.0 999691
08:00−5юз71693100 1.3 997827
11:000юз71478100 1.4 9961388
14:000зюз71374100 0.0 9971405
17:000зюз51184100 0.1 10001209
20:00−2зюз31089100 0.1 1001612
6 марта, сб
сб623:00−4з3987100 0.1 1002302
02:00−6з41088100 0.0 1003427
05:00−11з4119073 0.0 1006322
08:00−14з411910 0.0 1009304
11:00−10з48880 0.0 1010353
14:00−7зюз48840 0.0 1010556
17:00−8зюз488712 0.0 1010597
20:00−12ююз379310 0.0 1011144
7 марта, вс
вс723:00−14ююз368823 0.0 1011118
02:00−14ююз2388100 0.0 100948
05:00−13ююв1290100 0.0 100722
08:00−12в1194100 0.1 100654
11:00−9с2289100 0.1 1006261
14:00−7ссз238797 0.1 1006415
17:00−8сз249298 0.1 1008405
20:00−12зсз369797 0.1 1009181
8 марта, пн
пн823:00−17зсз239673 0.1 101140
02:00−18з23980 0.0 101233
05:00−20з23987 0.0 101323
08:00−21зюз23960 0.0 101446
11:00−13ююз358811 0.0 1013300
14:00−10ю51086100 0.0 1011596
17:00−10ююз61292100 0.4 1009860
20:00−9ююз61489100 0.4 1009726